Location: Gro�sch�nbrunn
(49.5760°N, 11.8868°E)
Time: 01:17:16
(UTC+00:00)

ATLAS 3B R/B - Pass Details

Date: 18 September 2020
Orbit: 1016 x 1179 km, 63.8° (Epoch: 28 October)

Event Time Altitude Azimuth Distance (km) Brightness Sun altitude
Rises 17:39:24 0° 301° (WNW) 3,780 7.0 -4.2°
Reaches altitude 10° 17:42:32 10° 315° (NW) 2,844 5.9 -4.7°
Maximum altitude 17:47:58 25° 9° (N) 1,984 4.2 -5.6°
Drops below altitude 10° 17:53:31 10° 63° (ENE) 2,923 4.5 -6.5°
Enters shadow 17:55:34 - 72° (ENE) 3,526 4.9 -6.8°
